Regional Weather Roundup
Issued by NWS

Home | Current Version | Previous Version | Text Only | Print | Product List | Glossary Off
Versions: 1 2 3 4 5 6 7 8 9 10 11 12 13 14 15 16 17 18 19 20 21 22 23 24 25 26 27 28 29 30 31 32 33 34 35 36 37 38 39 40 41 42 43 44 45 46 47 48 49 50

000
ASUS43 KDTX 161901
RWRMI
MICHIGAN HOURLY REGIONAL WEATHER ROUNDUP
NATIONAL WEATHER SERVICE DETROIT/PONTIAC MI
300 PM EDT TUE SEP 16 2014

NOTE: "FAIR" INDICATES FEW OR NO CLOUDS BELOW 12,000 FEET WITH NO
SIGNIFICANT WEATHER AND/OR OBSTRUCTION TO VISIBILITY.

MIZ047>049-052>055-059>063-066>070-074>076-081>083-162000-
SOUTHEAST LOWER MICHIGAN

CITY           SKY/WX    TMP DP  RH WIND       PRES   REMARKS
ADRIAN         MOSUNNY   65  42  43 NE7       30.13F
ALMA           PTSUNNY   63  46  54 W8        30.11F
ANN ARBOR      MOSUNNY   66  42  41 MISG      30.11F
BAD AXE        MOSUNNY   63  46  54 W8G18     30.09F
CARO           PTSUNNY   62  46  55 SW9       30.10F
DETROIT CITY   MOSUNNY   66  43  43 VRB3      30.10F
DETROIT        MOSUNNY   66  42  41 VRB7      30.11F
FLINT          PTSUNNY   67  45  45 W8        30.11F
GROSSE ILE     PTSUNNY   63  50  63 S8        30.10F
HILLSDALE      SUNNY     65  38  37 N6        30.12F
HOWELL         MOSUNNY   63  40  42 CALM      30.11F

CITY           SKY/WX    TMP DP  RH WIND       PRES   REMARKS
JACKSON        MOSUNNY   64  43  46 VRB3      30.12F
LAMBERTVILLE   MOSUNNY   64  45  48 N5        30.13F
LANSING        PTSUNNY   62  45  53 W8        30.12F
LAPEER         FAIR      62  42  47 NW5       30.11F
MASON          MOSUNNY   62  46  55 W8        30.12F
MONROE         MOSUNNY   64  43  45 CALM      30.10F
MT. CLEMENS    MOSUNNY   63  45  51 E6        30.09F
PONTIAC        MOSUNNY   63  41  44 W6        30.10F
PORT HOPE        N/A     61  45  55 W5        30.07F
PORT HURON     MOSUNNY   63  45  51 CALM      30.10F
TRI CITIES     CLOUDY    63  46  54 W9        30.10F
TROY           SUNNY     66  38  35 N5        30.12F
SAGINAW HB     PTSUNNY   64  45  48 W12       30.09F
$$
MIZ043>046-050>051-056>058-064>065-071>073-077>080-162000-
SOUTHWEST LOWER MICHIGAN

CITY           SKY/WX    TMP DP  RH WIND       PRES   REMARKS
BATTLE CREEK   PTSUNNY   62  44  51 W6        30.14F
BENTON HARBOR  MOSUNNY   61  46  57 W9        30.15F
BIG RAPIDS     MOSUNNY   61  45  55 W7        30.11F
COLDWATER      SUNNY     65  42  43 CALM      30.13F
FREMONT        FAIR      62  37  40 W5        30.12F
HOLLAND        SUNNY     63  44  50 NW12      30.15F
GRAND RAPIDS   MOSUNNY   65  44  46 W14       30.13F
IONIA          MOCLDY    62  46  55 W12       30.11F
KALAMAZOO      PTSUNNY   64  47  53 NW5       30.14F
LUDINGTON      SUNNY     59  44  57 W7        30.14S
MARSHALL       CLOUDY    63  44  49 W7G22     30.12F
MOUNT PLEASANT PTSUNNY   63  44  51 W8        30.10F
MUSKEGON       MOSUNNY   61  40  45 NW10      30.14F
SOUTH HAVEN    SUNNY     63  47  56 NW6       30.15F
$$
MIZ016>042-162000-
NORTHERN LOWER MICHIGAN

CITY           SKY/WX    TMP DP  RH WIND       PRES   REMARKS
ALPENA         PTSUNNY   62  42  47 SW9       30.05F
BEAVER ISLAND  SUNNY     62  47  58 SW13G21   30.05F
BELLAIRE       SUNNY     62  37  38 SW7       30.08F
CADILLAC       SUNNY     59  43  56 W8        30.10S
CHARLEVOIX     SUNNY     62  43  49 SW13      30.10S
FRANKFORT      SUNNY     61  42  49 SW13      30.11F
GAYLORD        MOSUNNY   58  35  42 VRB6      30.07F
GRAYLING       SUNNY     62  37  40 W8        30.08F
HARBOR SPRINGS SUNNY     62  42  48 SW9G17    30.06F
HOUGHTON LAKE  SUNNY     60  43  53 W10       30.09F
MANISTEE       SUNNY     61  37  41 W12       30.13F
OSCODA         PTSUNNY   61  47  61 S8        30.06F
PELLSTON       SUNNY     62  38  40 SW14G22   30.05F
ROGERS CITY    PTSUNNY   63  41  44 W9        30.05F
TRAVERSE CITY  MOSUNNY   63  37  38 W13       30.08F
$$
MIZ007>008-015-162000-
EASTERN UPPER MICHIGAN

CITY           SKY/WX    TMP DP  RH WIND       PRES   REMARKS
KINROSS        SUNNY     61  39  44 SW12G24   30.00F
MACKINAC ISLAN SUNNY     60  43  52 SW12G23   30.03F
NEWBERRY       SUNNY     63  43  48 S17G26    29.99F
S. S. MARIE    SUNNY     63  40  42 SW10G18   29.98F
$$
MIZ004>006-011>014-085-162000-
CENTRAL UPPER MICHIGAN

CITY           SKY/WX    TMP DP  RH WIND       PRES   REMARKS
MANISTIQUE     SUNNY     60  49  67 SW15G23   30.02F
ESCANABA       SUNNY     66  43  42 SW13G22   30.02F
MENOMINEE      SUNNY     64  43  45 SW13G20   30.05F
SAWYER-GWINN   SUNNY     64  39  39 W13G28    30.00F
$$
MIZ001>003-009>011-084-162000-
WESTERN UPPER MICHIGAN

CITY           SKY/WX    TMP DP  RH WIND       PRES   REMARKS
IRON MOUNTAIN  SUNNY     66  40  38 W14G21    30.02F
HOUGHTON       PTSUNNY   60  40  47 W22G33    29.97S
COPPER HARBOR    N/A     58  42  55 NW8G17    29.95R
IRONWOOD       SUNNY     64  43  45 W18       30.00F
$$

ABBREVIATIONS USED IN REMARKS
   TC - TEMPERATURE IN CELSIUS
  WCI - WIND CHILL INDEX
   HX - HEAT INDEX
  VSB - VISIBILITY




USA.gov is the U.S. government's official web portal to all federal, state and local government web resources and services.